This demonstration page uses our WeatherBlox Daily Observations layout. Learn more.

Left ArrowRight Arrow

Hourly Observations for January 30, 2020

Temp ( °F °C ) Dew Point ( °F °C ) Humidity (%) Winds ( mph kmh ) Pressure ( in mb ) Visibility ( mi km ) Precip ( " mm )
12:53 am 00:53 Partly Cloudy 38 3.3 28 -2.2 68 68 SW 15 24 29.82 1010 10 16 0.00 0.00
1:53 am 01:53 Mostly Cloudy 38 3.3 28 -2.2 68 68 SW 16 26 29.84 1011 10 16 0.00 0.00
2:53 am 02:53 Cloudy 38 3.3 28 -2.2 68 68 SW 15 24 29.85 1011 10 16 0.00 0.00
3:53 am 03:53 Cloudy 39 3.9 27 -2.8 62 62 WNW 17 28 29.88 1012 10 16 0.00 0.00
4:53 am 04:53 Cloudy 38 3.3 29 -1.7 70 70 WNW 21 33 29.94 1014 10 16 0.00 0.00
5:53 am 05:53 Cloudy 37 2.8 30 -1.1 76 76 NW 20 31 30.01 1016 10 16 0.00 0.00
6:53 am 06:53 Clear 35 1.7 30 -1.1 82 82 WNW 15 24 30.06 1018 10 16 0.00 0.00
7:53 am 07:53 Sunny 32 0 28 -2.2 85 85 W 9 15 30.11 1020 10 16 0.00 0.00
8:53 am 08:53 Sunny 33 0.6 28 -2.2 82 82 SW 9 15 30.14 1021 10 16 0.00 0.00
9:53 am 09:53 Sunny 37 2.8 28 -2.2 70 70 WSW 12 19 30.17 1022 10 16 0.00 0.00
10:53 am 10:53 Sunny 41 5 26 -3.3 55 55 W 16 26 30.20 1023 10 16 0.00 0.00
11:53 am 11:53 Sunny 44 6.7 24 -4.4 45 45 W 14 22 30.21 1023 10 16 0.00 0.00
12:53 pm 12:53 Sunny 45 7.2 24 -4.4 44 44 W 17 28 30.18 1022 10 16 0.00 0.00
1:53 pm 13:53 Sunny 46 7.8 24 -4.4 42 42 W 20 31 30.17 1022 10 16 0.00 0.00
2:53 pm 14:53 Sunny 45 7.2 25 -3.9 46 46 W 17 28 30.18 1022 10 16 0.00 0.00
3:53 pm 15:53 Sunny 44 6.7 23 -5 43 43 WNW 10 17 30.17 1022 10 16 0.00 0.00
4:53 pm 16:53 Sunny 34 1.1 22 -5.6 61 61 WSW 5 7 30.18 1022 10 16 0.00 0.00
5:53 pm 17:53 Clear 30 -1.1 24 -4.4 79 79 S 8 13 30.16 1022 10 16 0.00 0.00
6:53 pm 18:53 Clear 29 -1.7 24 -4.4 82 82 S 6 9 30.15 1021 10 16 0.00 0.00
7:53 pm 19:53 Clear 28 -2.2 21 -6.1 75 75 SSE 5 7 30.13 1020 10 16 0.00 0.00
8:53 pm 20:53 Clear 29 -1.7 20 -6.7 69 69 Calm 30.10 1019 10 16 0.00 0.00
9:53 pm 21:53 Clear 32 0 22 -5.6 66 66 SW 9 15 30.04 1017 10 16 0.00 0.00
10:53 pm 22:53 Clear 37 2.8 17 -8.3 44 44 SW 16 26 29.99 1016 10 16 0.00 0.00
11:53 pm 23:53 Clear 38 3.3 17 -8.3 43 43 SW 13 20 29.95 1014 10 16 0.00 0.00

Powered by AerisWeather